Погода в Танджунгселоре

Индонезия     2°50′08″N   117°22′30″E
темп.,
°C
ветер,
м/с
пор.,
м/с
влажн.,
%
обл.,
%
осадки,
мм/ч
давл.,
гПа
погр.,
м
2 марта, вт
вт223:00+24ююз0192100 0.0 101224
02:00+24зюз1194100 0.4 101125
05:00+23з0194100 0.1 101123
08:00+25зсз1189100 0.1 1013104
11:00+31ссв2361100 0.2 10131124
14:00+32ссв335672 0.3 10091225
17:00+29всв246818 0.2 1008631
20:00+24вюв129059 0.4 101041
3 марта, ср
ср323:00+25св139259 0.3 101286
02:00+24ссв019879 1.8 101128
05:00+23ссз1197100 2.0 101124
08:00+25зсз1295100 2.3 1012136
11:00+28с238186 1.8 1012699
14:00+31ссв345685 2.0 10091310
17:00+29всв246715 0.3 1009873
20:00+24вюв11978 1.9 101123
4 марта, чт
чт423:00+23ююв0098100 0.9 101324
02:00+23зюз0198100 1.8 101223
05:00+22зюз1199100 3.5 101130
08:00+24зсз119599 6.6 101459
11:00+28с1176100 1.9 1013709
14:00+28св1175100 4.0 1011830
17:00+28всв1171100 0.3 1009652
20:00+23вюв119099 0.3 101224
5 марта, пт
пт523:00+23юз119299 0.0 101323
02:00+22зюз119349 0.0 101124
05:00+22юз119530 0.0 101123
08:00+26з127921 0.0 1013212
11:00+31с225510 0.2 10131266
14:00+32ссв234928 0.5 10091460
17:00+29св23616 0.0 1008745
20:00+24вюв118832 0.0 101124
6 марта, сб
сб623:00+23ююз119019 0.0 101223
02:00+23зюз119211 0.1 101123
05:00+22зюз12941 0.1 101033
08:00+25з12838 0.4 1013177
11:00+28с238321 1.8 1012620
14:00+32ссв355218 3.4 10091616
17:00+29св256472 0.6 10091079
20:00+24вюв019165 0.6 101224